Data supplied by UK-AIR on 30/3/2023
All Data GMT hour ending 
Status: R =Ratified P=Provisional,P*=As supplied
,,Dundee Mains Loan,,,,,,,,,,,,,,,,,,,,,,,
Date,time,"Nitric oxide",status,unit,"Nitrogen dioxide",status,unit,"Nitrogen oxides as nitrogen dioxide",status,unit
 
01-01-2022,01:00,1.14509,R,ugm-3,8.34187,R,ugm-3,10.09766,R,ugm-3
01-01-2022,02:00,0.92488,R,ugm-3,3.63069,R,ugm-3,5.04883,R,ugm-3
01-01-2022,03:00,1.05701,R,ugm-3,5.28730,R,ugm-3,6.90803,R,ugm-3
01-01-2022,04:00,1.15610,R,ugm-3,4.87951,R,ugm-3,6.65217,R,ugm-3
01-01-2022,05:00,0.89185,R,ugm-3,2.21445,R,ugm-3,3.58194,R,ugm-3
01-01-2022,06:00,0.89185,R,ugm-3,3.23786,R,ugm-3,4.60535,R,ugm-3
01-01-2022,07:00,0.99095,R,ugm-3,5.33743,R,ugm-3,6.85685,R,ugm-3
01-01-2022,08:00,1.09004,R,ugm-3,5.85070,R,ugm-3,7.52207,R,ugm-3
01-01-2022,09:00,0.92488,R,ugm-3,4.26180,R,ugm-3,5.67993,R,ugm-3
01-01-2022,10:00,0.56154,R,ugm-3,2.77210,R,ugm-3,3.63311,R,ugm-3
01-01-2022,11:00,0.59457,R,ugm-3,2.56794,R,ugm-3,3.47960,R,ugm-3
01-01-2022,12:00,0.56154,R,ugm-3,2.15805,R,ugm-3,3.01906,R,ugm-3
01-01-2022,13:00,0.56154,R,ugm-3,1.49284,R,ugm-3,2.35385,R,ugm-3
01-01-2022,14:00,0.39638,R,ugm-3,1.49022,R,ugm-3,2.09799,R,ugm-3
01-01-2022,15:00,0.36335,R,ugm-3,1.79672,R,ugm-3,2.35385,R,ugm-3
01-01-2022,16:00,0.36335,R,ugm-3,1.48970,R,ugm-3,2.04682,R,ugm-3
01-01-2022,17:00,0.26425,R,ugm-3,2.25569,R,ugm-3,2.66087,R,ugm-3
01-01-2022,18:00,0.23122,R,ugm-3,3.02272,R,ugm-3,3.37726,R,ugm-3
01-01-2022,19:00,0.39638,R,ugm-3,2.56480,R,ugm-3,3.17257,R,ugm-3
01-01-2022,20:00,0.39638,R,ugm-3,1.89959,R,ugm-3,2.50736,R,ugm-3
01-01-2022,21:00,0.36335,R,ugm-3,2.41077,R,ugm-3,2.96789,R,ugm-3
01-01-2022,22:00,0.66063,R,ugm-3,2.72250,R,ugm-3,3.73545,R,ugm-3
01-01-2022,23:00,0.66063,R,ugm-3,1.08504,R,ugm-3,2.09799,R,ugm-3
01-01-2022,24:00,0.66063,R,ugm-3,1.64792,R,ugm-3,2.66087,R,ugm-3
02-01-2022,01:00,0.30824,R,ugm-3,2.18798,R,ugm-3,2.66060,R,ugm-3
02-01-2022,02:00,0.30824,R,ugm-3,1.91509,R,ugm-3,2.38772,R,ugm-3
02-01-2022,03:00,0.29723,R,ugm-3,2.20486,R,ugm-3,2.66060,R,ugm-3
02-01-2022,04:00,0.36328,R,ugm-3,2.15475,R,ugm-3,2.71177,R,ugm-3
02-01-2022,05:00,0.42933,R,ugm-3,1.64414,R,ugm-3,2.30244,R,ugm-3
02-01-2022,06:00,0.29723,R,ugm-3,1.43737,R,ugm-3,1.89312,R,ugm-3
02-01-2022,07:00,0.39631,R,ugm-3,1.89945,R,ugm-3,2.50710,R,ugm-3
02-01-2022,08:00,0.49538,R,ugm-3,2.20802,R,ugm-3,2.96759,R,ugm-3
02-01-2022,09:00,0.56143,R,ugm-3,2.31140,R,ugm-3,3.17225,R,ugm-3
02-01-2022,10:00,0.42933,R,ugm-3,2.46279,R,ugm-3,3.12109,R,ugm-3
02-01-2022,11:00,0.42933,R,ugm-3,2.61629,R,ugm-3,3.27459,R,ugm-3
02-01-2022,12:00,0.36328,R,ugm-3,2.15475,R,ugm-3,2.71177,R,ugm-3
02-01-2022,13:00,0.42933,R,ugm-3,2.25813,R,ugm-3,2.91643,R,ugm-3
02-01-2022,14:00,0.33026,R,ugm-3,2.61471,R,ugm-3,3.12109,R,ugm-3
02-01-2022,15:00,0.26420,R,ugm-3,2.92064,R,ugm-3,3.32575,R,ugm-3
02-01-2022,16:00,0.16513,R,ugm-3,3.12373,R,ugm-3,3.37692,R,ugm-3
02-01-2022,17:00,0.19815,R,ugm-3,4.04523,R,ugm-3,4.34906,R,ugm-3
02-01-2022,18:00,0.33026,R,ugm-3,4.35433,R,ugm-3,4.86071,R,ugm-3
02-01-2022,19:00,0.56143,R,ugm-3,4.97200,R,ugm-3,5.83286,R,ugm-3
02-01-2022,20:00,0.69354,R,ugm-3,5.74159,R,ugm-3,6.80500,R,ugm-3
02-01-2022,21:00,0.46236,R,ugm-3,3.33313,R,ugm-3,4.04207,R,ugm-3
02-01-2022,22:00,0.42933,R,ugm-3,2.00230,R,ugm-3,2.66060,R,ugm-3
02-01-2022,23:00,0.26420,R,ugm-3,1.74384,R,ugm-3,2.14895,R,ugm-3
02-01-2022,24:00,0.19815,R,ugm-3,0.87297,R,ugm-3,1.17680,R,ugm-3
03-01-2022,01:00,0.13208,R,ugm-3,0.68426,R,ugm-3,0.88678,R,ugm-3
03-01-2022,02:00,0.39623,R,ugm-3,0.55208,R,ugm-3,1.15963,R,ugm-3
03-01-2022,03:00,0.26416,R,ugm-3,0.36237,R,ugm-3,0.76740,R,ugm-3
03-01-2022,04:00,0.13208,R,ugm-3,0.30909,R,ugm-3,0.51160,R,ugm-3
03-01-2022,05:00,0.23114,R,ugm-3,0.51532,R,ugm-3,0.86973,R,ugm-3
03-01-2022,06:00,0.26416,R,ugm-3,0.92513,R,ugm-3,1.33017,R,ugm-3
03-01-2022,07:00,0.06604,R,ugm-3,0.97311,R,ugm-3,1.07437,R,ugm-3
03-01-2022,08:00,0.36321,R,ugm-3,2.35921,R,ugm-3,2.91613,R,ugm-3
03-01-2022,09:00,0.56133,R,ugm-3,3.28328,R,ugm-3,4.14398,R,ugm-3
03-01-2022,10:00,1.48587,R,ugm-3,3.96324,R,ugm-3,6.24155,R,ugm-3
03-01-2022,11:00,1.45286,R,ugm-3,4.26967,R,ugm-3,6.49735,R,ugm-3
03-01-2022,12:00,1.32078,R,ugm-3,3.39782,R,ugm-3,5.42299,R,ugm-3
03-01-2022,13:00,1.25474,R,ugm-3,3.08980,R,ugm-3,5.01370,R,ugm-3
03-01-2022,14:00,0.82549,R,ugm-3,3.95262,R,ugm-3,5.21834,R,ugm-3
03-01-2022,15:00,0.92454,R,ugm-3,7.99587,R,ugm-3,9.41348,R,ugm-3
03-01-2022,16:00,0.72643,R,ugm-3,10.19257,R,ugm-3,11.30641,R,ugm-3
03-01-2022,17:00,0.85851,R,ugm-3,16.33393,R,ugm-3,17.65028,R,ugm-3
03-01-2022,18:00,1.18870,R,ugm-3,22.32499,R,ugm-3,24.14763,R,ugm-3
03-01-2022,19:00,0.75945,R,ugm-3,12.90460,R,ugm-3,14.06907,R,ugm-3
03-01-2022,20:00,0.89152,R,ugm-3,15.10661,R,ugm-3,16.47360,R,ugm-3
03-01-2022,21:00,0.59435,R,ugm-3,10.44625,R,ugm-3,11.35757,R,ugm-3
03-01-2022,22:00,0.66039,R,ugm-3,7.32654,R,ugm-3,8.33912,R,ugm-3
03-01-2022,23:00,0.66039,R,ugm-3,7.12190,R,ugm-3,8.13448,R,ugm-3
03-01-2022,24:00,1.41984,R,ugm-3,7.59456,R,ugm-3,9.77161,R,ugm-3
04-01-2022,01:00,0.57223,R,ugm-3,4.85196,R,ugm-3,5.72937,R,ugm-3
04-01-2022,02:00,0.52821,R,ugm-3,2.66863,R,ugm-3,3.47855,R,ugm-3
04-01-2022,03:00,0.59424,R,ugm-3,1.13505,R,ugm-3,2.04620,R,ugm-3
04-01-2022,04:00,0.46219,R,ugm-3,0.97944,R,ugm-3,1.68812,R,ugm-3
04-01-2022,05:00,0.52821,R,ugm-3,4.30559,R,ugm-3,5.11551,R,ugm-3
04-01-2022,06:00,0.66027,R,ugm-3,3.18232,R,ugm-3,4.19472,R,ugm-3
04-01-2022,07:00,0.56123,R,ugm-3,2.31108,R,ugm-3,3.17162,R,ugm-3
04-01-2022,08:00,0.46219,R,ugm-3,2.61640,R,ugm-3,3.32508,R,ugm-3
04-01-2022,09:00,0.49520,R,ugm-3,3.38426,R,ugm-3,4.14356,R,ugm-3
04-01-2022,10:00,0.75931,R,ugm-3,3.74663,R,ugm-3,4.91089,R,ugm-3
04-01-2022,11:00,1.15547,R,ugm-3,4.67385,R,ugm-3,6.44554,R,ugm-3
04-01-2022,12:00,1.41958,R,ugm-3,3.60387,R,ugm-3,5.78052,R,ugm-3
04-01-2022,13:00,1.12245,R,ugm-3,3.49675,R,ugm-3,5.21782,R,ugm-3
04-01-2022,14:00,0.79232,R,ugm-3,3.13331,R,ugm-3,4.34818,R,ugm-3
04-01-2022,15:00,0.75931,R,ugm-3,3.74663,R,ugm-3,4.91089,R,ugm-3
04-01-2022,16:00,0.79232,R,ugm-3,3.74717,R,ugm-3,4.96204,R,ugm-3
04-01-2022,17:00,0.66027,R,ugm-3,3.79618,R,ugm-3,4.80858,R,ugm-3
04-01-2022,18:00,0.69328,R,ugm-3,3.28517,R,ugm-3,4.34818,R,ugm-3
04-01-2022,19:00,0.66027,R,ugm-3,2.92655,R,ugm-3,3.93894,R,ugm-3
04-01-2022,20:00,0.79232,R,ugm-3,3.28677,R,ugm-3,4.50165,R,ugm-3
04-01-2022,21:00,0.85835,R,ugm-3,2.92976,R,ugm-3,4.24587,R,ugm-3
04-01-2022,22:00,0.75931,R,ugm-3,1.85390,R,ugm-3,3.01815,R,ugm-3
04-01-2022,23:00,0.79232,R,ugm-3,1.24057,R,ugm-3,2.45544,R,ugm-3
04-01-2022,24:00,0.95739,R,ugm-3,0.98747,R,ugm-3,2.45544,R,ugm-3
05-01-2022,01:00,0.74817,R,ugm-3,0.96703,R,ugm-3,2.11420,R,ugm-3
05-01-2022,02:00,0.74817,R,ugm-3,0.89883,R,ugm-3,2.04600,R,ugm-3
05-01-2022,03:00,0.59413,R,ugm-3,0.72581,R,ugm-3,1.63680,R,ugm-3
05-01-2022,04:00,0.59413,R,ugm-3,0.57236,R,ugm-3,1.48335,R,ugm-3
05-01-2022,05:00,0.46210,R,ugm-3,0.41675,R,ugm-3,1.12530,R,ugm-3
05-01-2022,06:00,0.56112,R,ugm-3,1.13447,R,ugm-3,1.99485,R,ugm-3
05-01-2022,07:00,0.66015,R,ugm-3,1.95449,R,ugm-3,2.96670,R,ugm-3
05-01-2022,08:00,0.69315,R,ugm-3,3.13147,R,ugm-3,4.19429,R,ugm-3
05-01-2022,09:00,0.82518,R,ugm-3,5.07733,R,ugm-3,6.34259,R,ugm-3
05-01-2022,10:00,0.82518,R,ugm-3,4.25893,R,ugm-3,5.52419,R,ugm-3
05-01-2022,11:00,1.25428,R,ugm-3,6.20964,R,ugm-3,8.13284,R,ugm-3
05-01-2022,12:00,1.81540,R,ugm-3,7.70216,R,ugm-3,10.48574,R,ugm-3
05-01-2022,13:00,1.35330,R,ugm-3,5.18826,R,ugm-3,7.26329,R,ugm-3
05-01-2022,14:00,1.45232,R,ugm-3,5.70138,R,ugm-3,7.92824,R,ugm-3
05-01-2022,15:00,1.38631,R,ugm-3,8.25779,R,ugm-3,10.38344,R,ugm-3
05-01-2022,16:00,1.12225,R,ugm-3,11.37362,R,ugm-3,13.09438,R,ugm-3
05-01-2022,17:00,1.15526,R,ugm-3,18.79090,R,ugm-3,20.56227,R,ugm-3
05-01-2022,18:00,1.88142,R,ugm-3,19.57002,R,ugm-3,22.45482,R,ugm-3
05-01-2022,19:00,1.28729,R,ugm-3,30.04604,R,ugm-3,32.01985,R,ugm-3
05-01-2022,20:00,1.12225,R,ugm-3,25.23525,R,ugm-3,26.95601,R,ugm-3
05-01-2022,21:00,5.64425,R,ugm-3,29.50345,R,ugm-3,38.15784,R,ugm-3
05-01-2022,22:00,4.19193,R,ugm-3,15.77153,R,ugm-3,22.19907,R,ugm-3
05-01-2022,23:00,0.92420,R,ugm-3,14.69513,R,ugm-3,16.11223,R,ugm-3
05-01-2022,24:00,0.82518,R,ugm-3,15.25616,R,ugm-3,16.52143,R,ugm-3
06-01-2022,01:00,0.79203,R,ugm-3,15.62925,R,ugm-3,16.84368,R,ugm-3
06-01-2022,02:00,0.92404,R,ugm-3,14.47214,R,ugm-3,15.88897,R,ugm-3
06-01-2022,03:00,0.79203,R,ugm-3,12.54351,R,ugm-3,13.75794,R,ugm-3
06-01-2022,04:00,1.15505,R,ugm-3,18.32885,R,ugm-3,20.09989,R,ugm-3
06-01-2022,05:00,0.66003,R,ugm-3,8.39861,R,ugm-3,9.41064,R,ugm-3
06-01-2022,06:00,0.59402,R,ugm-3,7.17005,R,ugm-3,8.08087,R,ugm-3
06-01-2022,07:00,0.59402,R,ugm-3,7.06776,R,ugm-3,7.97858,R,ugm-3
06-01-2022,08:00,0.66003,R,ugm-3,8.19403,R,ugm-3,9.20606,R,ugm-3
06-01-2022,09:00,1.55106,R,ugm-3,15.26669,R,ugm-3,17.64495,R,ugm-3
06-01-2022,10:00,1.02304,R,ugm-3,11.11526,R,ugm-3,12.68390,R,ugm-3
06-01-2022,11:00,1.51806,R,ugm-3,13.42493,R,ugm-3,15.75259,R,ugm-3
06-01-2022,12:00,1.41905,R,ugm-3,13.06529,R,ugm-3,15.24114,R,ugm-3
06-01-2022,13:00,1.38605,R,ugm-3,13.06474,R,ugm-3,15.19000,R,ugm-3
06-01-2022,14:00,3.10212,R,ugm-3,19.07695,R,ugm-3,23.83346,R,ugm-3
06-01-2022,15:00,1.48506,R,ugm-3,15.06102,R,ugm-3,17.33808,R,ugm-3
06-01-2022,16:00,1.22105,R,ugm-3,14.18721,R,ugm-3,16.05946,R,ugm-3
06-01-2022,17:00,0.95704,R,ugm-3,14.79660,R,ugm-3,16.26404,R,ugm-3
06-01-2022,18:00,0.85803,R,ugm-3,13.20948,R,ugm-3,14.52511,R,ugm-3
06-01-2022,19:00,0.62702,R,ugm-3,11.10874,R,ugm-3,12.07016,R,ugm-3
06-01-2022,20:00,0.36301,R,ugm-3,4.35328,R,ugm-3,4.90990,R,ugm-3
06-01-2022,21:00,0.42902,R,ugm-3,2.66659,R,ugm-3,3.32441,R,ugm-3
06-01-2022,22:00,0.26401,R,ugm-3,2.86846,R,ugm-3,3.27327,R,ugm-3
06-01-2022,23:00,0.33001,R,ugm-3,2.35810,R,ugm-3,2.86411,R,ugm-3
06-01-2022,24:00,0.46202,R,ugm-3,2.25798,R,ugm-3,2.96640,R,ugm-3
07-01-2022,01:00,0.30796,R,ugm-3,2.39163,R,ugm-3,2.86382,R,ugm-3
07-01-2022,02:00,0.17597,R,ugm-3,1.63939,R,ugm-3,1.90921,R,ugm-3
07-01-2022,03:00,0.29696,R,ugm-3,1.64140,R,ugm-3,2.09672,R,ugm-3
07-01-2022,04:00,0.23097,R,ugm-3,1.48688,R,ugm-3,1.84103,R,ugm-3
07-01-2022,05:00,0.49493,R,ugm-3,1.84924,R,ugm-3,2.60812,R,ugm-3
07-01-2022,06:00,0.39594,R,ugm-3,2.81925,R,ugm-3,3.42636,R,ugm-3
07-01-2022,07:00,0.65990,R,ugm-3,6.81252,R,ugm-3,7.82436,R,ugm-3
07-01-2022,08:00,0.75889,R,ugm-3,9.11545,R,ugm-3,10.27906,R,ugm-3
07-01-2022,09:00,1.12184,R,ugm-3,11.06477,R,ugm-3,12.78490,R,ugm-3
07-01-2022,10:00,0.82488,R,ugm-3,10.39503,R,ugm-3,11.65983,R,ugm-3
07-01-2022,11:00,1.31981,R,ugm-3,9.07362,R,ugm-3,11.09730,R,ugm-3
07-01-2022,12:00,1.94672,R,ugm-3,9.95339,R,ugm-3,12.93832,R,ugm-3
07-01-2022,13:00,2.07870,R,ugm-3,8.83051,R,ugm-3,12.01781,R,ugm-3
07-01-2022,14:00,1.58377,R,ugm-3,9.02686,R,ugm-3,11.45527,R,ugm-3
07-01-2022,15:00,0.92387,R,ugm-3,11.74335,R,ugm-3,13.15993,R,ugm-3
07-01-2022,16:00,0.62691,R,ugm-3,16.37508,R,ugm-3,17.33633,R,ugm-3
07-01-2022,17:00,1.28681,R,ugm-3,21.80683,R,ugm-3,23.77992,R,ugm-3
07-01-2022,18:00,0.98986,R,ugm-3,17.71073,R,ugm-3,19.22849,R,ugm-3
07-01-2022,19:00,0.79189,R,ugm-3,17.04263,R,ugm-3,18.25684,R,ugm-3
07-01-2022,20:00,0.62691,R,ugm-3,12.99987,R,ugm-3,13.96111,R,ugm-3
07-01-2022,21:00,0.62691,R,ugm-3,14.12494,R,ugm-3,15.08618,R,ugm-3
07-01-2022,22:00,0.72590,R,ugm-3,15.25165,R,ugm-3,16.36468,R,ugm-3
07-01-2022,23:00,0.69290,R,ugm-3,11.51791,R,ugm-3,12.58034,R,ugm-3
07-01-2022,24:00,0.59391,R,ugm-3,10.64690,R,ugm-3,11.55755,R,ugm-3
08-01-2022,01:00,0.70377,R,ugm-3,13.92034,R,ugm-3,14.99944,R,ugm-3
08-01-2022,02:00,0.79174,R,ugm-3,9.76288,R,ugm-3,10.97686,R,ugm-3
08-01-2022,03:00,0.89071,R,ugm-3,16.12225,R,ugm-3,17.48798,R,ugm-3
08-01-2022,04:00,0.72576,R,ugm-3,10.44357,R,ugm-3,11.55639,R,ugm-3
08-01-2022,05:00,0.82473,R,ugm-3,7.47942,R,ugm-3,8.74399,R,ugm-3
08-01-2022,06:00,0.79174,R,ugm-3,5.28009,R,ugm-3,6.49408,R,ugm-3
08-01-2022,07:00,0.79174,R,ugm-3,5.53576,R,ugm-3,6.74975,R,ugm-3
08-01-2022,08:00,0.92370,R,ugm-3,7.07200,R,ugm-3,8.48832,R,ugm-3
08-01-2022,09:00,1.12163,R,ugm-3,12.13762,R,ugm-3,13.85744,R,ugm-3
08-01-2022,10:00,1.97935,R,ugm-3,25.34466,R,ugm-3,28.37962,R,ugm-3
08-01-2022,11:00,2.96903,R,ugm-3,27.20205,R,ugm-3,31.75449,R,ugm-3
08-01-2022,12:00,1.74843,R,ugm-3,11.84130,R,ugm-3,14.52218,R,ugm-3
08-01-2022,13:00,2.30924,R,ugm-3,15.37896,R,ugm-3,18.91975,R,ugm-3
08-01-2022,14:00,3.03500,R,ugm-3,17.12967,R,ugm-3,21.78328,R,ugm-3
08-01-2022,15:00,2.67212,R,ugm-3,14.77141,R,ugm-3,18.86861,R,ugm-3
08-01-2022,16:00,3.99169,R,ugm-3,17.14567,R,ugm-3,23.26618,R,ugm-3
08-01-2022,17:00,1.71544,R,ugm-3,15.88037,R,ugm-3,18.51067,R,ugm-3
08-01-2022,18:00,1.15462,R,ugm-3,9.73486,R,ugm-3,11.50525,R,ugm-3
08-01-2022,19:00,1.12163,R,ugm-3,10.65473,R,ugm-3,12.37454,R,ugm-3
08-01-2022,20:00,1.15462,R,ugm-3,13.92788,R,ugm-3,15.69828,R,ugm-3
08-01-2022,21:00,1.45152,R,ugm-3,17.66566,R,ugm-3,19.89130,R,ugm-3
08-01-2022,22:00,1.12163,R,ugm-3,14.38754,R,ugm-3,16.10735,R,ugm-3
08-01-2022,23:00,1.02266,R,ugm-3,16.17559,R,ugm-3,17.74366,R,ugm-3
08-01-2022,24:00,1.12163,R,ugm-3,12.95578,R,ugm-3,14.67559,R,ugm-3
09-01-2022,01:00,0.87955,R,ugm-3,7.99099,R,ugm-3,9.33962,R,ugm-3
09-01-2022,02:00,1.18739,R,ugm-3,9.22328,R,ugm-3,11.04393,R,ugm-3
09-01-2022,03:00,0.92353,R,ugm-3,7.88948,R,ugm-3,9.30553,R,ugm-3
09-01-2022,04:00,0.79160,R,ugm-3,1.39383,R,ugm-3,2.60759,R,ugm-3
09-01-2022,05:00,0.59370,R,ugm-3,1.79953,R,ugm-3,2.70985,R,ugm-3
09-01-2022,06:00,0.59370,R,ugm-3,2.92438,R,ugm-3,3.83470,R,ugm-3
09-01-2022,07:00,0.52773,R,ugm-3,5.07069,R,ugm-3,5.87987,R,ugm-3
09-01-2022,08:00,0.59370,R,ugm-3,5.88988,R,ugm-3,6.80020,R,ugm-3
09-01-2022,09:00,0.92353,R,ugm-3,9.21884,R,ugm-3,10.63489,R,ugm-3
09-01-2022,10:00,1.08844,R,ugm-3,6.81854,R,ugm-3,8.48746,R,ugm-3
09-01-2022,11:00,1.71512,R,ugm-3,9.84573,R,ugm-3,12.47555,R,ugm-3
09-01-2022,12:00,1.78109,R,ugm-3,10.00023,R,ugm-3,12.73119,R,ugm-3
09-01-2022,13:00,1.74811,R,ugm-3,11.53355,R,ugm-3,14.21394,R,ugm-3
09-01-2022,14:00,4.08991,R,ugm-3,20.92968,R,ugm-3,27.20078,R,ugm-3
09-01-2022,15:00,11.51111,R,ugm-3,46.77279,R,ugm-3,64.42291,R,ugm-3
09-01-2022,16:00,15.37014,R,ugm-3,49.44542,R,ugm-3,73.01263,R,ugm-3
09-01-2022,17:00,2.04495,R,ugm-3,16.03793,R,ugm-3,19.17349,R,ugm-3
09-01-2022,18:00,1.84706,R,ugm-3,26.51610,R,ugm-3,29.34821,R,ugm-3
09-01-2022,19:00,2.90251,R,ugm-3,31.23779,R,ugm-3,35.68825,R,ugm-3
09-01-2022,20:00,6.53066,R,ugm-3,42.75189,R,ugm-3,52.76543,R,ugm-3
09-01-2022,21:00,3.56218,R,ugm-3,25.77807,R,ugm-3,31.24000,R,ugm-3
09-01-2022,22:00,4.61764,R,ugm-3,40.26545,R,ugm-3,47.34573,R,ugm-3
09-01-2022,23:00,4.12289,R,ugm-3,37.80290,R,ugm-3,44.12458,R,ugm-3
09-01-2022,24:00,2.63865,R,ugm-3,14.46293,R,ugm-3,18.50880,R,ugm-3
10-01-2022,01:00,2.98992,R,ugm-3,23.97687,R,ugm-3,28.56135,R,ugm-3
10-01-2022,02:00,2.19847,R,ugm-3,15.37457,R,ugm-3,18.74552,R,ugm-3
10-01-2022,03:00,1.71481,R,ugm-3,17.20683,R,ugm-3,19.83617,R,ugm-3
10-01-2022,04:00,3.39664,R,ugm-3,15.75279,R,ugm-3,20.96090,R,ugm-3
10-01-2022,05:00,1.94565,R,ugm-3,11.58709,R,ugm-3,14.57038,R,ugm-3
10-01-2022,06:00,3.52855,R,ugm-3,27.05346,R,ugm-3,32.46383,R,ugm-3
10-01-2022,07:00,6.43053,R,ugm-3,29.60783,R,ugm-3,39.46783,R,ugm-3
10-01-2022,08:00,12.03663,R,ugm-3,40.59246,R,ugm-3,59.04838,R,ugm-3
10-01-2022,09:00,34.88974,R,ugm-3,57.49364,R,ugm-3,110.99050,R,ugm-3
10-01-2022,10:00,27.66776,R,ugm-3,51.69622,R,ugm-3,94.11953,R,ugm-3
10-01-2022,11:00,13.02594,R,ugm-3,40.91601,R,ugm-3,60.88884,R,ugm-3
10-01-2022,12:00,39.93523,R,ugm-3,55.94335,R,ugm-3,117.17652,R,ugm-3
10-01-2022,13:00,22.55632,R,ugm-3,47.51949,R,ugm-3,82.10536,R,ugm-3
10-01-2022,14:00,9.00274,R,ugm-3,38.24036,R,ugm-3,52.04437,R,ugm-3
10-01-2022,15:00,4.91358,R,ugm-3,37.60856,R,ugm-3,45.14261,R,ugm-3
10-01-2022,16:00,3.13282,R,ugm-3,37.98731,R,ugm-3,42.79090,R,ugm-3
10-01-2022,17:00,2.93496,R,ugm-3,37.88170,R,ugm-3,42.38191,R,ugm-3
10-01-2022,18:00,2.73710,R,ugm-3,28.67599,R,ugm-3,32.87282,R,ugm-3
10-01-2022,19:00,2.20946,R,ugm-3,11.43820,R,ugm-3,14.82600,R,ugm-3
10-01-2022,20:00,1.38504,R,ugm-3,9.07249,R,ugm-3,11.19619,R,ugm-3
10-01-2022,21:00,1.51695,R,ugm-3,9.02361,R,ugm-3,11.34956,R,ugm-3
10-01-2022,22:00,1.51695,R,ugm-3,5.64941,R,ugm-3,7.97537,R,ugm-3
10-01-2022,23:00,1.31908,R,ugm-3,4.67470,R,ugm-3,6.69726,R,ugm-3
10-01-2022,24:00,1.12122,R,ugm-3,8.14778,R,ugm-3,9.86696,R,ugm-3
11-01-2022,01:00,0.87923,R,ugm-3,4.44535,R,ugm-3,5.79349,R,ugm-3
11-01-2022,02:00,0.74734,R,ugm-3,7.71471,R,ugm-3,8.86062,R,ugm-3
11-01-2022,03:00,0.69239,R,ugm-3,5.43046,R,ugm-3,6.49211,R,ugm-3
11-01-2022,04:00,0.79131,R,ugm-3,3.94970,R,ugm-3,5.16302,R,ugm-3
11-01-2022,05:00,0.72536,R,ugm-3,5.83997,R,ugm-3,6.95218,R,ugm-3
11-01-2022,06:00,0.79131,R,ugm-3,5.89222,R,ugm-3,7.10554,R,ugm-3
11-01-2022,07:00,0.79131,R,ugm-3,7.17020,R,ugm-3,8.38351,R,ugm-3
11-01-2022,08:00,1.08804,R,ugm-3,12.74724,R,ugm-3,14.41555,R,ugm-3
11-01-2022,09:00,4.25326,R,ugm-3,34.11801,R,ugm-3,40.63959,R,ugm-3
11-01-2022,10:00,29.97066,R,ugm-3,62.92905,R,ugm-3,108.88342,R,ugm-3
11-01-2022,11:00,5.60507,R,ugm-3,23.91734,R,ugm-3,32.51167,R,ugm-3
11-01-2022,12:00,2.47283,R,ugm-3,13.28212,R,ugm-3,17.07374,R,ugm-3
11-01-2022,13:00,2.40689,R,ugm-3,15.68359,R,ugm-3,19.37409,R,ugm-3
11-01-2022,14:00,2.20906,R,ugm-3,16.24251,R,ugm-3,19.62969,R,ugm-3
11-01-2022,15:00,1.68152,R,ugm-3,16.08013,R,ugm-3,18.65843,R,ugm-3
11-01-2022,16:00,1.15399,R,ugm-3,13.05508,R,ugm-3,14.82450,R,ugm-3
11-01-2022,17:00,1.08804,R,ugm-3,14.33193,R,ugm-3,16.00024,R,ugm-3
11-01-2022,18:00,1.25290,R,ugm-3,15.97056,R,ugm-3,17.89164,R,ugm-3
11-01-2022,19:00,1.45073,R,ugm-3,17.81423,R,ugm-3,20.03864,R,ugm-3
11-01-2022,20:00,1.08804,R,ugm-3,13.51403,R,ugm-3,15.18234,R,ugm-3
11-01-2022,21:00,1.05507,R,ugm-3,10.75304,R,ugm-3,12.37079,R,ugm-3
11-01-2022,22:00,0.92319,R,ugm-3,8.50155,R,ugm-3,9.91708,R,ugm-3
11-01-2022,23:00,0.85725,R,ugm-3,6.60902,R,ugm-3,7.92344,R,ugm-3
11-01-2022,24:00,0.92319,R,ugm-3,4.87210,R,ugm-3,6.28763,R,ugm-3
12-01-2022,01:00,0.65930,R,ugm-3,3.07819,R,ugm-3,4.08911,R,ugm-3
12-01-2022,02:00,0.57139,R,ugm-3,1.57734,R,ugm-3,2.45346,R,ugm-3
12-01-2022,03:00,0.62633,R,ugm-3,2.05535,R,ugm-3,3.01572,R,ugm-3
12-01-2022,04:00,0.82413,R,ugm-3,2.16099,R,ugm-3,3.42463,R,ugm-3
12-01-2022,05:00,0.79116,R,ugm-3,1.70039,R,ugm-3,2.91349,R,ugm-3
12-01-2022,06:00,0.69226,R,ugm-3,1.74980,R,ugm-3,2.81126,R,ugm-3
12-01-2022,07:00,0.79116,R,ugm-3,2.87601,R,ugm-3,4.08911,R,ugm-3
12-01-2022,08:00,0.79116,R,ugm-3,5.12502,R,ugm-3,6.33811,R,ugm-3
12-01-2022,09:00,1.21970,R,ugm-3,8.14812,R,ugm-3,10.01831,R,ugm-3
12-01-2022,10:00,1.15377,R,ugm-3,9.52706,R,ugm-3,11.29615,R,ugm-3
12-01-2022,11:00,0.92302,R,ugm-3,5.43398,R,ugm-3,6.84925,R,ugm-3
12-01-2022,12:00,0.98895,R,ugm-3,7.68412,R,ugm-3,9.20049,R,ugm-3
12-01-2022,13:00,0.82413,R,ugm-3,5.43227,R,ugm-3,6.69591,R,ugm-3
12-01-2022,14:00,0.85709,R,ugm-3,4.51279,R,ugm-3,5.82698,R,ugm-3
12-01-2022,15:00,0.62633,R,ugm-3,5.07107,R,ugm-3,6.03143,R,ugm-3
12-01-2022,16:00,0.69226,R,ugm-3,4.61218,R,ugm-3,5.67363,R,ugm-3
12-01-2022,17:00,0.52744,R,ugm-3,4.45600,R,ugm-3,5.26472,R,ugm-3
12-01-2022,18:00,0.39558,R,ugm-3,3.99370,R,ugm-3,4.60024,R,ugm-3
12-01-2022,19:00,0.39558,R,ugm-3,3.78924,R,ugm-3,4.39579,R,ugm-3
12-01-2022,20:00,0.59337,R,ugm-3,4.25268,R,ugm-3,5.16250,R,ugm-3
12-01-2022,21:00,0.79116,R,ugm-3,3.08047,R,ugm-3,4.29356,R,ugm-3
12-01-2022,22:00,1.05488,R,ugm-3,2.98279,R,ugm-3,4.60024,R,ugm-3
12-01-2022,23:00,0.52744,R,ugm-3,1.90030,R,ugm-3,2.70903,R,ugm-3
12-01-2022,24:00,0.32965,R,ugm-3,1.48798,R,ugm-3,1.99344,R,ugm-3
13-01-2022,01:00,0.48340,R,ugm-3,2.25718,R,ugm-3,2.99838,R,ugm-3
13-01-2022,02:00,0.70312,R,ugm-3,2.19285,R,ugm-3,3.27095,R,ugm-3
13-01-2022,03:00,0.49438,R,ugm-3,1.28630,R,ugm-3,2.04435,R,ugm-3
13-01-2022,04:00,0.62622,R,ugm-3,1.95301,R,ugm-3,2.91320,R,ugm-3
13-01-2022,05:00,0.49438,R,ugm-3,1.64406,R,ugm-3,2.40211,R,ugm-3
13-01-2022,06:00,0.62622,R,ugm-3,3.84402,R,ugm-3,4.80421,R,ugm-3
13-01-2022,07:00,0.59326,R,ugm-3,3.84345,R,ugm-3,4.75311,R,ugm-3
13-01-2022,08:00,0.65918,R,ugm-3,4.66234,R,ugm-3,5.67306,R,ugm-3
13-01-2022,09:00,0.85693,R,ugm-3,7.68118,R,ugm-3,8.99512,R,ugm-3
13-01-2022,10:00,0.92285,R,ugm-3,7.42678,R,ugm-3,8.84180,R,ugm-3
13-01-2022,11:00,1.15356,R,ugm-3,5.07979,R,ugm-3,6.84856,R,ugm-3
13-01-2022,12:00,0.98877,R,ugm-3,4.46362,R,ugm-3,5.97971,R,ugm-3
13-01-2022,13:00,1.02173,R,ugm-3,3.79978,R,ugm-3,5.36641,R,ugm-3
13-01-2022,14:00,0.98877,R,ugm-3,4.00365,R,ugm-3,5.51974,R,ugm-3
13-01-2022,15:00,1.12060,R,ugm-3,5.38587,R,ugm-3,7.10410,R,ugm-3
13-01-2022,16:00,0.85693,R,ugm-3,5.84127,R,ugm-3,7.15521,R,ugm-3
13-01-2022,17:00,0.65918,R,ugm-3,5.78673,R,ugm-3,6.79745,R,ugm-3
13-01-2022,18:00,0.85693,R,ugm-3,6.25014,R,ugm-3,7.56408,R,ugm-3
13-01-2022,19:00,0.82397,R,ugm-3,5.17629,R,ugm-3,6.43969,R,ugm-3
13-01-2022,20:00,0.79101,R,ugm-3,4.86906,R,ugm-3,6.08193,R,ugm-3
13-01-2022,21:00,0.88989,R,ugm-3,4.87078,R,ugm-3,6.23526,R,ugm-3
13-01-2022,22:00,0.82397,R,ugm-3,5.48294,R,ugm-3,6.74634,R,ugm-3
13-01-2022,23:00,0.98877,R,ugm-3,4.71917,R,ugm-3,6.23526,R,ugm-3
13-01-2022,24:00,0.79101,R,ugm-3,3.38691,R,ugm-3,4.59978,R,ugm-3
14-01-2022,01:00,1.09843,R,ugm-3,4.38005,R,ugm-3,6.06428,R,ugm-3
14-01-2022,02:00,0.83481,R,ugm-3,1.58178,R,ugm-3,2.86180,R,ugm-3
14-01-2022,03:00,0.79087,R,ugm-3,1.34253,R,ugm-3,2.55518,R,ugm-3
14-01-2022,04:00,0.92268,R,ugm-3,0.83380,R,ugm-3,2.24856,R,ugm-3
14-01-2022,05:00,0.92268,R,ugm-3,2.57132,R,ugm-3,3.98607,R,ugm-3
14-01-2022,06:00,0.92268,R,ugm-3,4.66656,R,ugm-3,6.08132,R,ugm-3
14-01-2022,07:00,1.02154,R,ugm-3,6.35471,R,ugm-3,7.92104,R,ugm-3
14-01-2022,08:00,1.28516,R,ugm-3,7.48359,R,ugm-3,9.45415,R,ugm-3
14-01-2022,09:00,1.61469,R,ugm-3,14.95047,R,ugm-3,17.42630,R,ugm-3
14-01-2022,10:00,2.57033,R,ugm-3,18.74885,R,ugm-3,22.68996,R,ugm-3
14-01-2022,11:00,3.29529,R,ugm-3,16.51297,R,ugm-3,21.56568,R,ugm-3
14-01-2022,12:00,3.55891,R,ugm-3,12.78703,R,ugm-3,18.24395,R,ugm-3
14-01-2022,13:00,3.39415,R,ugm-3,10.58670,R,ugm-3,15.79098,R,ugm-3
14-01-2022,14:00,2.50442,R,ugm-3,8.83361,R,ugm-3,12.67367,R,ugm-3
14-01-2022,15:00,2.30670,R,ugm-3,10.05664,R,ugm-3,13.59353,R,ugm-3
14-01-2022,16:00,2.63623,R,ugm-3,20.33421,R,ugm-3,24.37637,R,ugm-3
14-01-2022,17:00,2.43851,R,ugm-3,29.58049,R,ugm-3,33.31949,R,ugm-3
14-01-2022,18:00,2.66918,R,ugm-3,33.72390,R,ugm-3,37.81659,R,ugm-3
14-01-2022,19:00,1.74650,R,ugm-3,19.39878,R,ugm-3,22.07671,R,ugm-3
14-01-2022,20:00,1.91127,R,ugm-3,28.49809,R,ugm-3,31.42866,R,ugm-3
14-01-2022,21:00,1.64764,R,ugm-3,23.17871,R,ugm-3,25.70506,R,ugm-3
14-01-2022,22:00,1.15335,R,ugm-3,8.86108,R,ugm-3,10.62953,R,ugm-3
14-01-2022,23:00,1.05449,R,ugm-3,5.02659,R,ugm-3,6.64346,R,ugm-3
14-01-2022,24:00,0.88973,R,ugm-3,5.07481,R,ugm-3,6.43904,R,ugm-3
15-01-2022,01:00,0.74680,R,ugm-3,5.46365,R,ugm-3,6.60872,R,ugm-3
15-01-2022,02:00,0.83465,R,ugm-3,5.12454,R,ugm-3,6.40433,R,ugm-3
15-01-2022,03:00,0.65894,R,ugm-3,4.09948,R,ugm-3,5.10984,R,ugm-3
15-01-2022,04:00,0.56010,R,ugm-3,3.89335,R,ugm-3,4.75215,R,ugm-3
15-01-2022,05:00,0.65894,R,ugm-3,3.02642,R,ugm-3,4.03677,R,ugm-3
15-01-2022,06:00,0.72483,R,ugm-3,4.10064,R,ugm-3,5.21203,R,ugm-3
15-01-2022,07:00,0.88956,R,ugm-3,6.50517,R,ugm-3,7.86915,R,ugm-3
15-01-2022,08:00,0.98840,R,ugm-3,11.10576,R,ugm-3,12.62129,R,ugm-3
15-01-2022,09:00,1.02135,R,ugm-3,12.74149,R,ugm-3,14.30754,R,ugm-3
15-01-2022,10:00,1.38377,R,ugm-3,10.90833,R,ugm-3,13.03008,R,ugm-3
15-01-2022,11:00,1.68029,R,ugm-3,11.22015,R,ugm-3,13.79655,R,ugm-3
15-01-2022,12:00,2.00976,R,ugm-3,12.45231,R,ugm-3,15.53390,R,ugm-3
15-01-2022,13:00,1.77913,R,ugm-3,10.86420,R,ugm-3,13.59216,R,ugm-3
15-01-2022,14:00,2.17449,R,ugm-3,14.03927,R,ugm-3,17.37344,R,ugm-3
15-01-2022,15:00,2.10860,R,ugm-3,13.73152,R,ugm-3,16.96465,R,ugm-3
15-01-2022,16:00,2.00976,R,ugm-3,17.61325,R,ugm-3,20.69483,R,ugm-3
15-01-2022,17:00,1.71324,R,ugm-3,20.98051,R,ugm-3,23.60744,R,ugm-3
15-01-2022,18:00,1.74618,R,ugm-3,23.84260,R,ugm-3,26.52004,R,ugm-3
15-01-2022,19:00,1.71324,R,ugm-3,18.68109,R,ugm-3,21.30801,R,ugm-3
15-01-2022,20:00,1.38377,R,ugm-3,16.06927,R,ugm-3,18.19101,R,ugm-3
15-01-2022,21:00,1.51555,R,ugm-3,16.58257,R,ugm-3,18.90639,R,ugm-3
15-01-2022,22:00,1.71324,R,ugm-3,16.73935,R,ugm-3,19.36627,R,ugm-3
15-01-2022,23:00,1.58145,R,ugm-3,16.53264,R,ugm-3,18.95749,R,ugm-3
15-01-2022,24:00,1.48261,R,ugm-3,12.39193,R,ugm-3,14.66523,R,ugm-3